FW3284 Weather Reports


time (UTC)temp
F
wind
direction
speed
knots
gust
knots
rain 1hr
in
rain 24hr
in
rain mn
in
humidity
%
barometer
mb
20260505071507 64 145 0.0 3.5 0.00 0.00 0.00 72 1003.9
20260505070031 64 214 0.9 7.0 0.00 0.00 0.00 72 1003.7
20260505064512 64 170 0.0 5.2 0.00 0.00 0.00 72 1003.7
20260505063049 64 203 0.9 7.8 0.00 0.00 0.00 73 1004.0
20260505061531 64 161 0.0 6.1 0.00 0.00 0.00 72 1004.0
20260505060057 64 140 0.0 3.5 0.00 0.00 0.00 72 1004.0
20260505054548 64 183 0.9 6.1 0.00 0.00 0.00 71 1004.1
20260505053025 65 160 0.0 2.6 0.00 0.00 0.00 70 1004.2
20260505051513 65 131 0.9 5.2 0.00 0.00 0.00 70 1004.3
20260505041509 67 228 0.9 6.1 0.00 0.00 0.00 66 1004.2
20260505040050 67 168 0.9 8.7 0.00 0.00 0.00 66 1004.4
20260505034533 67 285 0.0 4.3 0.00 0.00 0.00 65 1004.8
20260505033014 68 166 1.7 7.0 0.00 0.00 0.00 64 1004.8
20260505031552 68 169 0.9 4.3 0.00 0.00 0.00 64 1004.9
20260505030044 69 193 0.9 9.6 0.00 0.00 0.00 63 1004.9
20260505024517 69 189 0.0 8.7 0.00 0.00 0.00 62 1004.9
20260505023058 69 319 0.0 4.3 0.00 0.00 0.00 62 1004.6
20260505021541 69 169 0.0 7.0 0.00 0.00 0.00 61 1004.3
20260505020023 70 162 0.0 3.5 0.00 0.00 0.00 59 1004.2
20260505014518 71 256 0.0 3.5 0.00 0.00 0.00 57 1003.9
20260505013055 72 195 0.0 6.1 0.00 0.00 0.00 56 1003.7
20260505011543 72 181 0.0 0.9 0.00 0.00 0.00 55 1003.5
20260505010025 73 165 0.0 3.5 0.00 0.00 0.00 53 1003.4
20260505004520 74 217 0.9 8.7 0.00 0.00 0.00 50 1003.1
20260505003050 74 231 2.6 7.0 0.00 0.00 0.00 50 1003.0
20260505001536 74 231 0.9 4.3 0.00 0.00 0.00 51 1002.9
20260505000015 75 161 0.9 7.8 0.00 0.00 0.00 50 1003.1
20260504234553 76 215 2.6 12.2 0.00 0.00 0.00 48 1003.1
20260504233033 78 262 1.7 12.2 0.00 0.00 0.00 48 1003.2
20260504231515 78 184 2.6 11.3 0.00 0.00 0.00 47 1003.3
20260504230056 78 221 4.3 12.2 0.00 0.00 0.00 47 1003.2
20260504224537 79 240 2.6 9.6 0.00 0.00 0.00 47 1003.2
20260504223017 78 238 4.3 13.9 0.00 0.00 0.00 45 1003.3
20260504221641 79 212 3.5 13.9 0.00 0.00 0.00 45 1003.4
20260504220040 79 238 2.6 9.6 0.00 0.00 0.00 45 1003.3
20260504214525 79 210 5.2 12.2 0.00 0.00 0.00 48 1003.4
20260504213027 79 203 7.0 14.8 0.00 0.00 0.00 45 1003.5
20260504211553 79 172 3.5 14.8 0.00 0.00 0.00 43 1003.7
20260504210032 80 226 6.1 10.4 0.00 0.00 0.00 44 1003.7
20260504204508 80 240 5.2 13.0 0.00 0.00 0.00 44 1004.0
20260504203047 80 186 5.2 10.4 0.00 0.00 0.00 45 1004.2
20260504201528 80 169 3.5 12.2 0.00 0.00 0.00 46 1004.2
20260504200007 78 207 0.9 13.9 0.00 0.00 0.00 46 1004.5
20260504194535 79 210 6.1 14.8 0.00 0.00 0.00 44 1004.7
20260504193021 79 221 7.0 13.9 0.00 0.00 0.00 46 1004.8
20260504191621 78 245 3.5 14.8 0.00 0.00 0.00 44 1004.8
20260504190040 78 215 7.0 13.9 0.00 0.00 0.00 46 1005.0
20260504184537 78 235 7.8 15.6 0.00 0.00 0.00 45 1005.2
20260504183057 78 233 2.6 13.0 0.00 0.00 0.00 46 1005.2
20260504181541 78 162 5.2 13.0 0.00 0.00 0.00 46 1005.1
20260504180025 77 237 5.2 13.9 0.00 0.00 0.00 48 1005.3
20260504174553 77 188 6.1 14.8 0.00 0.00 0.00 47 1005.2
20260504173035 77 233 3.5 13.9 0.00 0.00 0.00 50 1005.4
20260504171517 76 214 2.6 13.0 0.00 0.00 0.00 49 1005.5
20260504081525 64 189 4.3 7.8 0.00 0.00 0.00 57 1008.6